Location: Hylvaty SDH
(49.9612°N, 16.4057°E)
Time: 20:54:14
(UTC+01:00)

Vanguard 1 Rocket - Pass Details

Date: 02 October 2020
Orbit: 656 x 4221 km, 34.3° (Epoch: 30 October)

Event Time Altitude Azimuth Distance (km) Brightness Sun altitude
Rises 20:42:42 0° 259° (W) 5,592 12.4 -21.8°
Reaches altitude 10° 20:45:55 10° 253° (WSW) 4,977 11.8 -22.3°
Maximum altitude 21:00:40 47° 186° (S) 4,149 10.5 -24.5°
Enters shadow 21:12:45 29° 138° (SE) 5,645 10.8 -26.2°
Drops below altitude 10° 21:23:35 10° 124° (ESE) 7,416 - -27.8°
Sets 21:29:50 0° 119° (ESE) 8,431 - -28.6°
